Total_Precipitation_Accumulation
0.26 0.28 0.31 0.28 0.28 0.28 0.31 0.42 0.59 0.42 0.11 0.03 0.04 0.07 0.10 0.16 0.20 0.21 0.22 0.23 0.26 0.32 0.38 0.40 0.45 0.59 0.91 1.52 2.49 3.48 3.66 2.93 2.07 1.54 1.48 1.82 2.18 2.57
0.32 0.35 0.36 0.37 0.37 0.34 0.35 0.37 0.46 0.55 0.33 0.05 0.04 0.08 0.13 0.17 0.22 0.20 0.22 0.25 0.24 0.26 0.30 0.34 0.40 0.51 0.72 1.03 1.62 2.52 3.37 3.58 3.02 2.30 1.90 1.93 2.17 2.42
0.35 0.41 0.44 0.47 0.52 0.49 0.47 0.44 0.42 0.47 0.45 0.12 0.04 0.06 0.15 0.20 0.22 0.21 0.23 0.22 0.19 0.21 0.24 0.29 0.36 0.46 0.62 0.84 1.17 1.76 2.59 3.30 3.49 3.08 2.63 2.33 2.26 2.29
0.44 0.45 0.48 0.51 0.57 0.59 0.60 0.55 0.45 0.39 0.43 0.28 0.09 0.06 0.12 0.22 0.28 0.26 0.25 0.23 0.20 0.20 0.24 0.29 0.34 0.44 0.56 0.73 0.96 1.30 1.91 2.57 3.12 3.26 3.00 2.61 2.38 2.42
0.70 0.70 0.64 0.60 0.62 0.61 0.65 0.62 0.53 0.44 0.40 0.38 0.21 0.11 0.13 0.22 0.34 0.37 0.33 0.29 0.24 0.23 0.25 0.27 0.30 0.37 0.46 0.59 0.78 1.02 1.31 1.74 2.25 2.85 3.08 2.87 2.55 2.44
0.76 0.82 0.83 0.84 0.80 0.75 0.73 0.69 0.64 0.60 0.53 0.51 0.39 0.25 0.21 0.25 0.42 0.50 0.44 0.36 0.32 0.28 0.29 0.28 0.30 0.34 0.37 0.40 0.47 0.64 0.90 1.29 1.77 2.31 2.82 2.94 2.66 2.45
0.57 0.61 0.71 0.87 0.96 1.01 1.05 0.96 0.91 0.95 0.87 0.79 0.66 0.50 0.39 0.42 0.53 0.59 0.65 0.55 0.45 0.39 0.37 0.30 0.28 0.25 0.25 0.28 0.36 0.46 0.65 0.89 1.24 1.73 2.24 2.64 2.69 2.55
0.43 0.41 0.45 0.62 0.74 0.86 1.01 1.04 1.10 1.25 1.29 1.18 0.97 0.79 0.56 0.50 0.56 0.71 0.84 0.89 0.74 0.47 0.47 0.44 0.38 0.34 0.27 0.24 0.27 0.35 0.49 0.72 0.95 1.28 1.69 2.13 2.42 2.57
0.27 0.27 0.28 0.38 0.50 0.53 0.65 0.75 0.85 1.02 1.25 1.34 1.29 0.95 0.69 0.54 0.68 0.84 0.89 0.96 0.85 0.66 0.73 0.79 0.62 0.52 0.39 0.35 0.37 0.37 0.45 0.59 0.76 0.97 1.27 1.68 2.07 2.35
0.21 0.19 0.16 0.21 0.34 0.48 0.58 0.61 0.61 0.74 1.03 1.27 1.40 1.21 0.96 0.83 0.95 1.17 1.26 1.24 1.06 0.91 0.94 1.11 0.92 0.73 0.60 0.50 0.43 0.39 0.43 0.49 0.61 0.76 0.99 1.32 1.71 2.02
0.19 0.20 0.15 0.13 0.30 0.49 0.51 0.48 0.44 0.51 0.67 0.97 1.18 1.22 1.19 1.23 1.32 1.57 1.72 1.66 1.49 1.20 1.09 1.20 1.19 1.05 0.91 0.79 0.63 0.50 0.45 0.46 0.52 0.65 0.79 1.02 1.36 1.79
0.18 0.18 0.24 0.27 0.38 0.46 0.42 0.44 0.51 0.47 0.45 0.52 0.62 0.72 0.80 0.87 1.09 1.39 1.57 1.65 1.63 1.61 1.28 1.20 1.36 1.43 1.53 1.20 0.85 0.57 0.47 0.51 0.54 0.60 0.70 0.84 1.11 1.42
0.27 0.23 0.22 0.30 0.36 0.39 0.43 0.42 0.53 0.52 0.49 0.57 0.59 0.57 0.61 0.71 0.84 1.09 1.37 1.56 1.69 1.67 1.33 1.33 1.55 1.47 1.57 1.47 1.15 0.81 0.52 0.47 0.51 0.61 0.70 0.77 0.92 1.07
0.31 0.23 0.23 0.29 0.33 0.39 0.39 0.42 0.46 0.48 0.49 0.50 0.47 0.46 0.52 0.62 0.75 0.92 1.14 1.31 1.40 1.44 1.27 1.29 1.65 1.51 1.41 1.31 1.21 1.08 0.79 0.58 0.49 0.51 0.59 0.82 0.97 1.01
0.43 0.41 0.35 0.35 0.33 0.27 0.27 0.33 0.36 0.35 0.43 0.45 0.40 0.36 0.43 0.56 0.64 0.75 0.89 1.07 1.20 1.25 1.28 1.25 1.43 1.50 1.48 1.35 1.09 0.99 0.96 0.85 0.62 0.55 0.59 0.66 0.75 0.85
0.49 0.47 0.43 0.40 0.31 0.22 0.20 0.20 0.21 0.27 0.35 0.40 0.35 0.30 0.33 0.44 0.56 0.69 0.85 0.99 1.17 1.20 1.24 1.32 1.44 1.65 1.65 1.33 1.14 0.97 0.83 0.93 0.79 0.60 0.60 0.66 0.66 0.61
0.59 0.53 0.43 0.38 0.36 0.27 0.20 0.15 0.16 0.21 0.26 0.28 0.30 0.31 0.34 0.41 0.49 0.61 0.82 0.98 1.13 1.14 1.24 1.44 1.57 1.65 1.73 1.66 1.51 1.11 0.82 0.75 0.72 0.62 0.64 0.77 0.82 0.72
0.60 0.54 0.37 0.29 0.29 0.26 0.22 0.18 0.16 0.17 0.18 0.22 0.28 0.31 0.35 0.42 0.49 0.56 0.73 0.93 1.04 1.07 1.16 1.37 1.59 1.76 1.94 2.02 1.77 1.30 0.96 0.83 0.79 0.72 0.67 0.76 0.91 0.85
0.43 0.36 0.26 0.23 0.21 0.21 0.20 0.18 0.16 0.14 0.17 0.23 0.26 0.28 0.33 0.39 0.46 0.53 0.63 0.78 0.92 1.01 1.12 1.24 1.46 1.67 1.80 1.89 1.96 1.59 1.19 0.99 0.96 0.96 0.85 0.74 0.78 0.83
0.26 0.25 0.24 0.22 0.21 0.21 0.20 0.18 0.17 0.16 0.18 0.20 0.21 0.23 0.29 0.37 0.42 0.46 0.54 0.69 0.82 0.94 1.05 1.15 1.32 1.50 1.58 1.53 1.62 1.69 1.55 1.21 1.06 1.07 1.00 0.91 0.91 1.03
0.22 0.21 0.22 0.24 0.23 0.21 0.19 0.18 0.18 0.17 0.16 0.18 0.19 0.20 0.24 0.33 0.38 0.40 0.47 0.58 0.74 0.86 0.94 1.01 1.14 1.30 1.47 1.48 1.41 1.40 1.57 1.58 1.24 1.05 1.01 1.08 1.19 1.20
0.22 0.22 0.21 0.22 0.23 0.22 0.21 0.20 0.20 0.18 0.17 0.18 0.18 0.18 0.21 0.27 0.33 0.36 0.43 0.52 0.62 0.74 0.83 0.92 1.05 1.27 1.51 1.57 1.43 1.28 1.41 1.63 1.66 1.38 1.14 1.07 1.18 1.20
0.27 0.26 0.24 0.23 0.22 0.22 0.22 0.21 0.21 0.17 0.15 0.16 0.17 0.17 0.19 0.22 0.25 0.30 0.37 0.44 0.53 0.64 0.77 0.91 1.04 1.23 1.43 1.50 1.48 1.32 1.26 1.39 1.53 1.55 1.52 1.27 0.95 0.78